User: anonymous   Login
Location: Sawmill Trailhead
(33.5800°N, 116.4497°W)
Time: 00:02:37
(UTC-08:00)
Language:

Uosat F - Orbit

View from above orbital plane
View from above orbital plane
View from above satellite
View from above satellite

Ground track
Ground track

The orbit data is extracted from the following two-line orbital elements,

1 21575U 91050B   15063.95320253  .00000359  00000-0  12715-3 0  9995
2 21575 098.7311 049.9005 0006180 266.0242 117.2480 14.40572732241022
Epoch (UTC): 04 March 2015 22:52:36
Eccentricity: 0.0006180
inclination: 98.7311°
perigee height: 752 km
apogee height: 761 km
right ascension of ascending node: 49.9005°
argument of perigee: 266.0242°
revolutions per day: 14.40572732
mean anomaly at epoch: 117.2480°
orbit number at epoch: 24102

The dashed part of the orbit path shows where the satellite is in the earth's shadow,  

DLR